Orbital Elements at Epoch 2459000.5 (2020-May-31.0) TDB
Reference: JPL 12 (heliocentric ecliptic J2000)
Element | Value | Uncertainty (1-sigma) | Units |
e | .1898381681371514 | 1.1677e-07 | |
a | 2.610049329354073 | 3.7946e-08 | au |
q | 2.114562345921895 | 3.1757e-07 | au |
i | 12.10740394694785 | 1.0637e-05 | deg |
node | 265.8845049336123 | 3.9087e-05 | deg |
peri | 121.968518407839 | 4.45e-05 | deg |
M | 230.4256547801053 | 1.9974e-05 | deg |
tp | 2459554.855067936425 (2021-Dec-06.35506794) | 8.8351e-05 | TDB |
period | 1540.180072825648 4.22 | 3.3588e-05 9.196e-08 | d yr |
n | .233738902581395 | 5.0974e-09 | deg/d |
Q | 3.105536312786251 | 4.515e-08 | au |
|
| | Orbit Determination Parameters
Additional Information
|